| time (UTC) | temp C | wind direction | speed KPH | gust KPH | rain 1hr cm | rain 24hr cm | rain mn cm | humidity % | barometer mb |
| 20260906035939 | 22 | 178 | 0.0 | 1.6 | 0.00 | 0.00 | 0.00 | 55 | 1010.7 |
| 20260906035435 | 22 | 289 | 3.2 | 3.2 | 0.00 | 0.00 | 0.00 | 55 | 1010.5 |
| 20260906034931 | 22 | 105 | 1.6 | 3.2 | 0.00 | 0.00 | 0.00 | 55 | 1010.5 |
| 20260906034431 | 22 | 222 | 1.6 | 1.6 | 0.00 | 0.00 | 0.00 | 54 | 1010.7 |
| 20260906033926 | 22 | 97 | 1.6 | 3.2 | 0.00 | 0.00 | 0.00 | 54 | 1010.5 |
| 20260906033426 | 23 | 165 | 0.0 | 1.6 | 0.00 | 0.00 | 0.00 | 54 | 1010.6 |
| 20260906032922 | 23 | 14 | 4.8 | 4.8 | 0.00 | 0.00 | 0.00 | 54 | 1010.4 |
| 20260906032419 | 23 | 169 | 0.0 | 1.6 | 0.00 | 0.00 | 0.00 | 54 | 1010.4 |
| 20260906031919 | 23 | 182 | 1.6 | 1.6 | 0.00 | 0.00 | 0.00 | 53 | 1010.6 |
| 20260906031414 | 23 | 173 | 1.6 | 1.6 | 0.00 | 0.00 | 0.00 | 53 | 1010.5 |
| 20260906030909 | 23 | 189 | 0.0 | 1.6 | 0.00 | 0.00 | 0.00 | 53 | 1010.4 |
| 20260906030404 | 23 | 185 | 1.6 | 1.6 | 0.00 | 0.00 | 0.00 | 53 | 1010.4 |
| 20260906025858 | 23 | 13 | 0.0 | 1.6 | 0.00 | 0.00 | 0.00 | 53 | 1010.3 |
| 20260906025353 | 23 | 183 | 0.0 | 1.6 | 0.00 | 0.00 | 0.00 | 52 | 1010.4 |
| 20260906024851 | 23 | 201 | 0.0 | 1.6 | 0.00 | 0.00 | 0.00 | 52 | 1010.3 |
| 20260906024351 | 23 | 190 | 0.0 | 0.0 | 0.00 | 0.00 | 0.00 | 53 | 1010.2 |
| 20260906023846 | 23 | 345 | 0.0 | 1.6 | 0.00 | 0.00 | 0.00 | 54 | 1010.2 |
| 20260906023342 | 23 | 302 | 1.6 | 1.6 | 0.00 | 0.00 | 0.00 | 54 | 1010.2 |
| 20260906022837 | 23 | 254 | 1.6 | 1.6 | 0.00 | 0.00 | 0.00 | 55 | 1010.2 |
| 20260906022338 | 23 | 175 | 0.0 | 3.2 | 0.00 | 0.00 | 0.00 | 55 | 1010.1 |
| 20260906021833 | 23 | 186 | 0.0 | 0.0 | 0.00 | 0.00 | 0.00 | 54 | 1010.1 |
| 20260906021332 | 23 | 171 | 0.0 | 1.6 | 0.00 | 0.00 | 0.00 | 54 | 1010.2 |
| 20260906020828 | 23 | 50 | 1.6 | 1.6 | 0.00 | 0.00 | 0.00 | 54 | 1010.3 |
| 20260906020327 | 23 | 49 | 4.8 | 4.8 | 0.00 | 0.00 | 0.00 | 55 | 1010.1 |
| 20260906015822 | 23 | 164 | 3.2 | 3.2 | 0.00 | 0.00 | 0.00 | 55 | 1010.1 |
| 20260906015321 | 23 | 264 | 3.2 | 8.0 | 0.00 | 0.00 | 0.00 | 56 | 1010.1 |
| 20260906014820 | 23 | 249 | 1.6 | 3.2 | 0.00 | 0.00 | 0.00 | 56 | 1010.1 |
| 20260906014316 | 23 | 114 | 1.6 | 1.6 | 0.00 | 0.00 | 0.00 | 56 | 1010.1 |
| 20260906013812 | 23 | 248 | 0.0 | 0.0 | 0.00 | 0.00 | 0.00 | 55 | 1010.1 |
| 20260906013307 | 23 | 168 | 0.0 | 0.0 | 0.00 | 0.00 | 0.00 | 55 | 1009.7 |
| 20260906012802 | 23 | 130 | 0.0 | 1.6 | 0.00 | 0.00 | 0.00 | 55 | 1009.8 |
| 20260906012257 | 23 | 196 | 0.0 | 1.6 | 0.00 | 0.00 | 0.00 | 54 | 1009.9 |
| 20260906011752 | 23 | 252 | 0.0 | 1.6 | 0.00 | 0.00 | 0.00 | 55 | 1010.0 |
| 20260906011252 | 23 | 177 | 0.0 | 0.0 | 0.00 | 0.00 | 0.00 | 54 | 1009.9 |
| 20260906010748 | 23 | 158 | 1.6 | 1.6 | 0.00 | 0.00 | 0.00 | 54 | 1009.8 |
| 20260906010244 | 23 | 177 | 0.0 | 0.0 | 0.00 | 0.00 | 0.00 | 55 | 1010.0 |
| 20260906005739 | 23 | 186 | 0.0 | 0.0 | 0.00 | 0.00 | 0.00 | 54 | 1009.6 |
| 20260906005238 | 23 | 186 | 0.0 | 0.0 | 0.00 | 0.00 | 0.00 | 54 | 1009.9 |
| 20260906004737 | 23 | 186 | 0.0 | 0.0 | 0.00 | 0.00 | 0.00 | 54 | 1010.0 |
| 20260906004232 | 23 | 186 | 0.0 | 0.0 | 0.00 | 0.00 | 0.00 | 54 | 1009.8 |
| 20260906003727 | 23 | 186 | 0.0 | 0.0 | 0.00 | 0.00 | 0.00 | 53 | 1009.9 |
| 20260906003223 | 23 | 187 | 0.0 | 0.0 | 0.00 | 0.00 | 0.00 | 53 | 1009.8 |
| 20260906002723 | 23 | 183 | 0.0 | 0.0 | 0.00 | 0.00 | 0.00 | 52 | 1009.6 |
| 20260906002218 | 23 | 187 | 0.0 | 0.0 | 0.00 | 0.00 | 0.00 | 53 | 1009.9 |
| 20260906001713 | 23 | 182 | 0.0 | 0.0 | 0.00 | 0.00 | 0.00 | 54 | 1009.8 |
| 20260906001213 | 23 | 207 | 0.0 | 0.0 | 0.00 | 0.00 | 0.00 | 55 | 1009.8 |
| 20260906000709 | 23 | 174 | 0.0 | 1.6 | 0.00 | 0.00 | 0.00 | 57 | 1009.8 |
| 20260906000204 | 23 | 168 | 0.0 | 0.0 | 0.00 | 0.00 | 0.00 | 60 | 1009.7 |
| 20260905235703 | 23 | 177 | 0.0 | 0.0 | 0.00 | 0.00 | 0.00 | 63 | 1010.0 |
| 20260905235157 | 23 | 234 | 1.6 | 1.6 | 0.00 | 0.00 | 0.00 | 68 | 1009.7 |
| 20260905234653 | 23 | 154 | 0.0 | 0.0 | 0.00 | 0.00 | 0.00 | 72 | 1009.7 |
| 20260905234148 | 23 | 153 | 0.0 | 1.6 | 0.00 | 0.00 | 0.00 | 72 | 1009.4 |
| 20260905233644 | 23 | 171 | 0.0 | 0.0 | 0.00 | 0.00 | 0.00 | 73 | 1009.7 |
| 20260905233143 | 23 | 121 | 1.6 | 3.2 | 0.00 | 0.00 | 0.00 | 72 | 1009.8 |
| 20260905232638 | 23 | 169 | 0.0 | 0.0 | 0.00 | 0.00 | 0.00 | 69 | 1009.8 |
| 20260905232134 | 23 | 106 | 0.0 | 0.0 | 0.00 | 0.00 | 0.00 | 66 | 1009.8 |
| 20260905231629 | 23 | 190 | 0.0 | 1.6 | 0.00 | 0.00 | 0.00 | 64 | 1009.7 |
| 20260905231125 | 24 | 176 | 0.0 | 0.0 | 0.00 | 0.00 | 0.00 | 64 | 1009.8 |
| 20260905230620 | 24 | 178 | 0.0 | 0.0 | 0.00 | 0.00 | 0.00 | 63 | 1009.5 |
| 20260905230119 | 24 | 163 | 0.0 | 1.6 | 0.00 | 0.00 | 0.00 | 60 | 1009.6 |
| 20260905225618 | 24 | 176 | 0.0 | 1.6 | 0.00 | 0.00 | 0.00 | 60 | 1009.6 |
| 20260905225113 | 24 | 160 | 0.0 | 1.6 | 0.00 | 0.00 | 0.00 | 60 | 1009.8 |
| 20260905224614 | 24 | 134 | 1.6 | 1.6 | 0.00 | 0.00 | 0.00 | 59 | 1009.6 |
| 20260905224113 | 24 | 156 | 0.0 | 1.6 | 0.00 | 0.00 | 0.00 | 60 | 1009.8 |
| 20260905223610 | 24 | 308 | 1.6 | 1.6 | 0.00 | 0.00 | 0.00 | 61 | 1009.4 |
| 20260905223107 | 24 | 324 | 1.6 | 1.6 | 0.00 | 0.00 | 0.00 | 61 | 1009.3 |
| 20260905222606 | 24 | 294 | 1.6 | 1.6 | 0.00 | 0.00 | 0.00 | 62 | 1009.5 |
| 20260905222102 | 24 | 166 | 1.6 | 1.6 | 0.00 | 0.00 | 0.00 | 62 | 1009.4 |
| 20260905221558 | 24 | 169 | 0.0 | 0.0 | 0.00 | 0.00 | 0.00 | 63 | 1009.4 |
| 20260905221054 | 24 | 182 | 0.0 | 1.6 | 0.00 | 0.00 | 0.00 | 64 | 1009.4 |
| 20260905220549 | 24 | 349 | 1.6 | 1.6 | 0.00 | 0.00 | 0.00 | 64 | 1009.4 |
| 20260905220045 | 24 | 151 | 0.0 | 1.6 | 0.00 | 0.00 | 0.00 | 64 | 1009.2 |
| 20260905215544 | 24 | 172 | 0.0 | 0.0 | 0.00 | 0.00 | 0.00 | 64 | 1009.4 |
| 20260905215040 | 25 | 171 | 0.0 | 0.0 | 0.00 | 0.00 | 0.00 | 63 | 1009.5 |
| 20260905214536 | 25 | 164 | 0.0 | 0.0 | 0.00 | 0.00 | 0.00 | 61 | 1009.0 |
| 20260905214031 | 25 | 159 | 0.0 | 1.6 | 0.00 | 0.00 | 0.00 | 59 | 1009.1 |
| 20260905213526 | 25 | 154 | 1.6 | 1.6 | 0.00 | 0.00 | 0.00 | 57 | 1009.0 |
| 20260905213022 | 25 | 205 | 0.0 | 1.6 | 0.00 | 0.00 | 0.00 | 56 | 1009.2 |
| 20260905212516 | 25 | 15 | 1.6 | 3.2 | 0.00 | 0.00 | 0.00 | 55 | 1009.1 |
| 20260905212017 | 25 | 259 | 3.2 | 3.2 | 0.00 | 0.00 | 0.00 | 54 | 1008.9 |
| 20260905211511 | 25 | 156 | 1.6 | 1.6 | 0.00 | 0.00 | 0.00 | 52 | 1009.0 |
| 20260905211007 | 25 | 239 | 1.6 | 1.6 | 0.00 | 0.00 | 0.00 | 51 | 1008.9 |
| 20260905210502 | 25 | 120 | 1.6 | 3.2 | 0.00 | 0.00 | 0.00 | 50 | 1009.1 |
| 20260905210002 | 25 | 342 | 1.6 | 3.2 | 0.00 | 0.00 | 0.00 | 49 | 1008.8 |
| 20260905205456 | 25 | 179 | 0.0 | 0.0 | 0.00 | 0.00 | 0.00 | 49 | 1008.7 |
| 20260905204955 | 25 | 163 | 0.0 | 0.0 | 0.00 | 0.00 | 0.00 | 49 | 1008.8 |
| 20260905204451 | 25 | 179 | 0.0 | 1.6 | 0.00 | 0.00 | 0.00 | 49 | 1008.8 |
| 20260905203950 | 25 | 155 | 0.0 | 1.6 | 0.00 | 0.00 | 0.00 | 49 | 1008.6 |
| 20260905203446 | 25 | 154 | 0.0 | 0.0 | 0.00 | 0.00 | 0.00 | 49 | 1008.8 |
| 20260905202941 | 25 | 171 | 1.6 | 3.2 | 0.00 | 0.00 | 0.00 | 50 | 1008.8 |
| 20260905202436 | 25 | 187 | 0.0 | 0.0 | 0.00 | 0.00 | 0.00 | 50 | 1008.7 |
| 20260905201932 | 26 | 202 | 1.6 | 1.6 | 0.00 | 0.00 | 0.00 | 50 | 1008.5 |
| 20260905201427 | 26 | 178 | 0.0 | 0.0 | 0.00 | 0.00 | 0.00 | 50 | 1008.5 |
| 20260905200926 | 25 | 200 | 0.0 | 0.0 | 0.00 | 0.00 | 0.00 | 51 | 1008.5 |
| 20260905200423 | 25 | 185 | 0.0 | 0.0 | 0.00 | 0.00 | 0.00 | 52 | 1008.4 |
| 20260905195921 | 25 | 188 | 0.0 | 1.6 | 0.00 | 0.00 | 0.00 | 53 | 1008.4 |
| 20260905195416 | 25 | 189 | 0.0 | 0.0 | 0.00 | 0.00 | 0.00 | 54 | 1008.4 |
| 20260905194912 | 25 | 202 | 0.0 | 1.6 | 0.00 | 0.00 | 0.00 | 56 | 1008.5 |
| 20260905194412 | 25 | 164 | 0.0 | 0.0 | 0.00 | 0.00 | 0.00 | 58 | 1008.3 |
| 20260905193911 | 25 | 194 | 0.0 | 0.0 | 0.00 | 0.00 | 0.00 | 62 | 1008.4 |
| 20260905193406 | 25 | 181 | 0.0 | 0.0 | 0.00 | 0.00 | 0.00 | 64 | 1008.4 |
| 20260905192901 | 26 | 181 | 0.0 | 0.0 | 0.00 | 0.00 | 0.00 | 64 | 1008.6 |
| 20260905192357 | 26 | 181 | 0.0 | 0.0 | 0.00 | 0.00 | 0.00 | 64 | 1008.5 |
| 20260905191856 | 26 | 172 | 0.0 | 0.0 | 0.00 | 0.00 | 0.00 | 64 | 1008.2 |
| 20260905191356 | 25 | 192 | 0.0 | 0.0 | 0.00 | 0.00 | 0.00 | 65 | 1008.0 |
| 20260905190856 | 25 | 192 | 0.0 | 0.0 | 0.00 | 0.00 | 0.00 | 66 | 1008.3 |
| 20260905190354 | 25 | 188 | 0.0 | 0.0 | 0.00 | 0.00 | 0.00 | 67 | 1008.1 |
| 20260905185853 | 25 | 197 | 0.0 | 0.0 | 0.00 | 0.00 | 0.00 | 68 | 1008.2 |
| 20260905185349 | 25 | 167 | 0.0 | 0.0 | 0.00 | 0.00 | 0.00 | 68 | 1008.1 |
| 20260905184847 | 25 | 184 | 0.0 | 1.6 | 0.00 | 0.00 | 0.00 | 69 | 1007.9 |
| 20260905184347 | 25 | 193 | 0.0 | 0.0 | 0.00 | 0.00 | 0.00 | 70 | 1007.9 |
| 20260905183845 | 25 | 186 | 0.0 | 1.6 | 0.00 | 0.00 | 0.00 | 70 | 1007.7 |
| 20260905183341 | 25 | 168 | 0.0 | 1.6 | 0.00 | 0.00 | 0.00 | 71 | 1007.8 |
| 20260905182842 | 25 | 169 | 0.0 | 0.0 | 0.00 | 0.00 | 0.00 | 71 | 1007.8 |
| 20260905182341 | 25 | 192 | 0.0 | 0.0 | 0.00 | 0.00 | 0.00 | 72 | 1007.7 |
| 20260905181837 | 26 | 192 | 0.0 | 1.6 | 0.00 | 0.00 | 0.00 | 73 | 1007.8 |
| 20260905181336 | 26 | 178 | 0.0 | 1.6 | 0.00 | 0.00 | 0.00 | 74 | 1007.8 |
| 20260905180835 | 26 | 128 | 1.6 | 1.6 | 0.00 | 0.00 | 0.00 | 75 | 1007.8 |
| 20260905180331 | 26 | 100 | 3.2 | 3.2 | 0.00 | 0.00 | 0.00 | 75 | 1007.9 |
| 20260905175826 | 26 | 309 | 1.6 | 3.2 | 0.00 | 0.00 | 0.00 | 75 | 1007.6 |
| 20260905175325 | 26 | 136 | 1.6 | 3.2 | 0.00 | 0.00 | 0.00 | 73 | 1007.5 |
| 20260905174821 | 26 | 242 | 1.6 | 1.6 | 0.00 | 0.00 | 0.00 | 72 | 1007.5 |
| 20260905174317 | 27 | 182 | 0.0 | 0.0 | 0.00 | 0.00 | 0.00 | 70 | 1007.5 |
| 20260905173812 | 27 | 189 | 1.6 | 1.6 | 0.00 | 0.00 | 0.00 | 67 | 1007.3 |
| 20260905173308 | 27 | 160 | 1.6 | 1.6 | 0.00 | 0.00 | 0.00 | 61 | 1007.2 |
| 20260905172808 | 28 | 189 | 1.6 | 1.6 | 0.00 | 0.00 | 0.00 | 59 | 1007.2 |
| 20260905172306 | 28 | 186 | 0.0 | 0.0 | 0.00 | 0.00 | 0.00 | 50 | 1007.2 |
| 20260905171803 | 28 | 186 | 0.0 | 0.0 | 0.00 | 0.00 | 0.00 | 50 | 1006.9 |
| 20260905171259 | 28 | 194 | 0.0 | 0.0 | 0.00 | 0.00 | 0.00 | 49 | 1007.0 |
| 20260905170755 | 29 | 186 | 0.0 | 0.0 | 0.00 | 0.00 | 0.00 | 49 | 1006.8 |
| 20260905170251 | 29 | 174 | 0.0 | 0.0 | 0.00 | 0.00 | 0.00 | 49 | 1007.0 |
| 20260905165749 | 29 | 183 | 0.0 | 0.0 | 0.00 | 0.00 | 0.00 | 48 | 1007.0 |
| 20260905165246 | 29 | 183 | 0.0 | 0.0 | 0.00 | 0.00 | 0.00 | 48 | 1006.8 |
| 20260905164745 | 30 | 176 | 0.0 | 0.0 | 0.00 | 0.00 | 0.00 | 47 | 1006.8 |
| 20260905164240 | 30 | 182 | 0.0 | 1.6 | 0.00 | 0.00 | 0.00 | 47 | 1006.9 |
| 20260905163736 | 30 | 174 | 0.0 | 1.6 | 0.00 | 0.00 | 0.00 | 46 | 1006.6 |
| 20260905163232 | 30 | 179 | 0.0 | 0.0 | 0.00 | 0.00 | 0.00 | 46 | 1006.7 |
| 20260905162728 | 30 | 185 | 0.0 | 1.6 | 0.00 | 0.00 | 0.00 | 46 | 1006.6 |
| 20260905162227 | 30 | 181 | 0.0 | 1.6 | 0.00 | 0.00 | 0.00 | 47 | 1006.6 |
| 20260905161722 | 30 | 196 | 0.0 | 1.6 | 0.00 | 0.00 | 0.00 | 48 | 1006.5 |
| 20260905161221 | 30 | 162 | 1.6 | 3.2 | 0.00 | 0.00 | 0.00 | 48 | 1006.5 |
| 20260905160719 | 30 | 172 | 0.0 | 1.6 | 0.00 | 0.00 | 0.00 | 48 | 1006.6 |
| 20260905160220 | 30 | 174 | 1.6 | 1.6 | 0.00 | 0.00 | 0.00 | 48 | 1006.5 |
| 20260905155714 | 30 | 196 | 3.2 | 3.2 | 0.00 | 0.00 | 0.00 | 47 | 1006.5 |
| 20260905155213 | 31 | 169 | 1.6 | 3.2 | 0.00 | 0.00 | 0.00 | 48 | 1006.5 |
| 20260905154707 | 31 | 177 | 3.2 | 3.2 | 0.00 | 0.00 | 0.00 | 47 | 1006.5 |
| 20260905154203 | 31 | 155 | 1.6 | 3.2 | 0.00 | 0.00 | 0.00 | 48 | 1006.7 |
| 20260905153659 | 31 | 167 | 3.2 | 3.2 | 0.00 | 0.00 | 0.00 | 46 | 1006.6 |
| 20260905153154 | 32 | 194 | 0.0 | 1.6 | 0.00 | 0.00 | 0.00 | 46 | 1006.6 |
| 20260905152649 | 32 | 187 | 0.0 | 0.0 | 0.00 | 0.00 | 0.00 | 45 | 1006.3 |
| 20260905152143 | 32 | 179 | 1.6 | 3.2 | 0.00 | 0.00 | 0.00 | 44 | 1006.3 |
| 20260905151638 | 32 | 194 | 1.6 | 1.6 | 0.00 | 0.00 | 0.00 | 45 | 1006.4 |
| 20260905151134 | 32 | 204 | 0.0 | 1.6 | 0.00 | 0.00 | 0.00 | 45 | 1006.6 |
| 20260905150629 | 32 | 180 | 0.0 | 1.6 | 0.00 | 0.00 | 0.00 | 45 | 1006.6 |
| 20260905150127 | 32 | 117 | 3.2 | 3.2 | 0.00 | 0.00 | 0.00 | 44 | 1007.0 |
| 20260905145626 | 32 | 202 | 0.0 | 0.0 | 0.00 | 0.00 | 0.00 | 44 | 1006.9 |
| 20260905145125 | 32 | 186 | 3.2 | 3.2 | 0.00 | 0.00 | 0.00 | 44 | 1006.8 |
| 20260905144620 | 32 | 184 | 1.6 | 3.2 | 0.00 | 0.00 | 0.00 | 45 | 1006.7 |
| 20260905144119 | 33 | 195 | 1.6 | 3.2 | 0.00 | 0.00 | 0.00 | 44 | 1006.6 |
| 20260905143614 | 33 | 194 | 3.2 | 3.2 | 0.00 | 0.00 | 0.00 | 43 | 1006.7 |
| 20260905143108 | 33 | 189 | 1.6 | 1.6 | 0.00 | 0.00 | 0.00 | 43 | 1006.7 |
| 20260905142608 | 33 | 185 | 0.0 | 1.6 | 0.00 | 0.00 | 0.00 | 44 | 1006.7 |
| 20260905142108 | 33 | 198 | 0.0 | 1.6 | 0.00 | 0.00 | 0.00 | 44 | 1007.0 |
| 20260905141607 | 33 | 183 | 3.2 | 4.8 | 0.00 | 0.00 | 0.00 | 43 | 1006.5 |
| 20260905141104 | 33 | 146 | 3.2 | 4.8 | 0.00 | 0.00 | 0.00 | 45 | 1006.8 |
| 20260905140559 | 32 | 160 | 1.6 | 1.6 | 0.00 | 0.00 | 0.00 | 45 | 1006.8 |
| 20260905140058 | 33 | 184 | 3.2 | 3.2 | 0.00 | 0.00 | 0.00 | 43 | 1006.8 |
| 20260905135553 | 32 | 187 | 1.6 | 3.2 | 0.00 | 0.00 | 0.00 | 45 | 1006.7 |
| 20260905135053 | 32 | 203 | 1.6 | 1.6 | 0.00 | 0.00 | 0.00 | 46 | 1006.8 |
| 20260905134548 | 32 | 183 | 3.2 | 3.2 | 0.00 | 0.00 | 0.00 | 45 | 1006.9 |
| 20260905134047 | 32 | 149 | 3.2 | 4.8 | 0.00 | 0.00 | 0.00 | 46 | 1007.0 |
| 20260905133543 | 32 | 178 | 1.6 | 3.2 | 0.00 | 0.00 | 0.00 | 47 | 1006.8 |
| 20260905133042 | 32 | 172 | 1.6 | 3.2 | 0.00 | 0.00 | 0.00 | 48 | 1006.9 |
| 20260905132542 | 32 | 132 | 3.2 | 4.8 | 0.00 | 0.00 | 0.00 | 47 | 1006.8 |
| 20260905132037 | 32 | 181 | 3.2 | 4.8 | 0.00 | 0.00 | 0.00 | 49 | 1006.8 |
| 20260905131533 | 33 | 177 | 0.0 | 1.6 | 0.00 | 0.00 | 0.00 | 46 | 1007.0 |
| 20260905131028 | 33 | 201 | 4.8 | 4.8 | 0.00 | 0.00 | 0.00 | 46 | 1006.8 |
| 20260905130527 | 33 | 188 | 1.6 | 3.2 | 0.00 | 0.00 | 0.00 | 47 | 1006.9 |
| 20260905130022 | 33 | 122 | 4.8 | 8.0 | 0.00 | 0.00 | 0.00 | 47 | 1006.9 |
| 20260905125521 | 32 | 184 | 1.6 | 3.2 | 0.00 | 0.00 | 0.00 | 47 | 1006.8 |
| 20260905125017 | 32 | 187 | 3.2 | 3.2 | 0.00 | 0.00 | 0.00 | 47 | 1006.9 |
| 20260905124514 | 32 | 174 | 1.6 | 1.6 | 0.00 | 0.00 | 0.00 | 47 | 1006.8 |
| 20260905124009 | 32 | 190 | 0.0 | 0.0 | 0.00 | 0.00 | 0.00 | 48 | 1007.0 |
| 20260905123505 | 32 | 155 | 3.2 | 3.2 | 0.00 | 0.00 | 0.00 | 49 | 1007.0 |
| 20260905123000 | 32 | 215 | 4.8 | 9.7 | 0.00 | 0.00 | 0.00 | 47 | 1007.0 |
| 20260905122455 | 32 | 151 | 3.2 | 3.2 | 0.00 | 0.00 | 0.00 | 48 | 1007.2 |
| 20260905121950 | 33 | 188 | 3.2 | 4.8 | 0.00 | 0.00 | 0.00 | 47 | 1007.4 |
| 20260905121445 | 33 | 198 | 3.2 | 4.8 | 0.00 | 0.00 | 0.00 | 46 | 1007.6 |
| 20260905120944 | 32 | 184 | 1.6 | 1.6 | 0.00 | 0.00 | 0.00 | 48 | 1007.2 |
| 20260905120439 | 32 | 160 | 4.8 | 4.8 | 0.00 | 0.00 | 0.00 | 47 | 1007.5 |
| 20260905115934 | 32 | 193 | 1.6 | 3.2 | 0.00 | 0.00 | 0.00 | 47 | 1007.2 |
| 20260905115433 | 32 | 112 | 1.6 | 3.2 | 0.00 | 0.00 | 0.00 | 46 | 1007.5 |
| 20260905114929 | 32 | 198 | 0.0 | 1.6 | 0.00 | 0.00 | 0.00 | 47 | 1007.3 |
| 20260905114428 | 32 | 198 | 0.0 | 0.0 | 0.00 | 0.00 | 0.00 | 48 | 1007.6 |
| 20260905113927 | 32 | 197 | 0.0 | 0.0 | 0.00 | 0.00 | 0.00 | 48 | 1007.6 |
| 20260905113423 | 32 | 161 | 3.2 | 3.2 | 0.00 | 0.00 | 0.00 | 46 | 1007.6 |
| 20260905112918 | 32 | 179 | 1.6 | 3.2 | 0.00 | 0.00 | 0.00 | 48 | 1007.3 |
| 20260905112413 | 31 | 156 | 1.6 | 3.2 | 0.00 | 0.00 | 0.00 | 50 | 1007.4 |
| 20260905111908 | 31 | 109 | 3.2 | 3.2 | 0.00 | 0.00 | 0.00 | 51 | 1007.6 |
| 20260905111408 | 32 | 214 | 6.4 | 8.0 | 0.00 | 0.00 | 0.00 | 48 | 1007.6 |
| 20260905110902 | 31 | 188 | 1.6 | 1.6 | 0.00 | 0.00 | 0.00 | 51 | 1007.6 |
| 20260905110402 | 31 | 147 | 4.8 | 4.8 | 0.00 | 0.00 | 0.00 | 52 | 1007.5 |
| 20260905105857 | 31 | 172 | 6.4 | 9.7 | 0.00 | 0.00 | 0.00 | 51 | 1007.6 |
| 20260905105357 | 31 | 192 | 1.6 | 1.6 | 0.00 | 0.00 | 0.00 | 52 | 1007.8 |
| 20260905104856 | 31 | 131 | 1.6 | 4.8 | 0.00 | 0.00 | 0.00 | 54 | 1007.8 |
| 20260905104353 | 31 | 179 | 3.2 | 3.2 | 0.00 | 0.00 | 0.00 | 54 | 1007.7 |
| 20260905103852 | 31 | 194 | 1.6 | 3.2 | 0.00 | 0.00 | 0.00 | 54 | 1007.8 |
| 20260905103348 | 31 | 160 | 3.2 | 3.2 | 0.00 | 0.00 | 0.00 | 53 | 1007.7 |
| 20260905102844 | 31 | 213 | 6.4 | 9.7 | 0.00 | 0.00 | 0.00 | 55 | 1007.6 |
| 20260905102341 | 30 | 164 | 1.6 | 3.2 | 0.00 | 0.00 | 0.00 | 57 | 1007.7 |
| 20260905101840 | 30 | 179 | 1.6 | 1.6 | 0.00 | 0.00 | 0.00 | 59 | 1007.7 |
| 20260905101339 | 30 | 186 | 3.2 | 4.8 | 0.00 | 0.00 | 0.00 | 60 | 1007.6 |
| 20260905100833 | 30 | 230 | 4.8 | 8.0 | 0.00 | 0.00 | 0.00 | 59 | 1007.7 |
| 20260905100330 | 30 | 181 | 3.2 | 3.2 | 0.00 | 0.00 | 0.00 | 60 | 1007.7 |
| 20260905095829 | 30 | 129 | 3.2 | 4.8 | 0.00 | 0.00 | 0.00 | 61 | 1007.4 |
| 20260905095329 | 30 | 144 | 3.2 | 3.2 | 0.00 | 0.00 | 0.00 | 61 | 1007.8 |
| 20260905094823 | 30 | 155 | 4.8 | 4.8 | 0.00 | 0.00 | 0.00 | 60 | 1007.9 |
| 20260905094319 | 30 | 171 | 1.6 | 3.2 | 0.00 | 0.00 | 0.00 | 60 | 1007.9 |
| 20260905093818 | 29 | 136 | 1.6 | 3.2 | 0.00 | 0.00 | 0.00 | 60 | 1007.8 |
| 20260905093314 | 29 | 181 | 1.6 | 1.6 | 0.00 | 0.00 | 0.00 | 59 | 1007.7 |
| 20260905092810 | 30 | 170 | 6.4 | 8.0 | 0.00 | 0.00 | 0.00 | 59 | 1007.7 |
| 20260905092309 | 30 | 150 | 3.2 | 8.0 | 0.00 | 0.00 | 0.00 | 57 | 1007.6 |
| 20260905091804 | 29 | 164 | 4.8 | 4.8 | 0.00 | 0.00 | 0.00 | 56 | 1007.6 |
| 20260905091304 | 29 | 191 | 1.6 | 3.2 | 0.00 | 0.00 | 0.00 | 57 | 1007.3 |
| 20260905090803 | 30 | 205 | 3.2 | 3.2 | 0.00 | 0.00 | 0.00 | 55 | 1007.4 |
| 20260905090259 | 30 | 180 | 1.6 | 1.6 | 0.00 | 0.00 | 0.00 | 54 | 1007.4 |
| 20260905085759 | 29 | 168 | 3.2 | 4.8 | 0.00 | 0.00 | 0.00 | 54 | 1007.5 |
| 20260905085258 | 29 | 175 | 1.6 | 3.2 | 0.00 | 0.00 | 0.00 | 54 | 1007.5 |
| 20260905084754 | 29 | 132 | 4.8 | 4.8 | 0.00 | 0.00 | 0.00 | 53 | 1007.4 |
| 20260905084253 | 29 | 165 | 1.6 | 1.6 | 0.00 | 0.00 | 0.00 | 51 | 1007.3 |
| 20260905083748 | 29 | 170 | 1.6 | 3.2 | 0.00 | 0.00 | 0.00 | 51 | 1007.4 |
| 20260905083244 | 30 | 150 | 3.2 | 4.8 | 0.00 | 0.00 | 0.00 | 53 | 1007.5 |
| 20260905082739 | 29 | 172 | 0.0 | 0.0 | 0.00 | 0.00 | 0.00 | 52 | 1007.4 |
| 20260905082236 | 29 | 177 | 0.0 | 1.6 | 0.00 | 0.00 | 0.00 | 53 | 1007.4 |
| 20260905081736 | 28 | 163 | 1.6 | 3.2 | 0.00 | 0.00 | 0.00 | 58 | 1007.2 |
| 20260905081231 | 28 | 194 | 0.0 | 1.6 | 0.00 | 0.00 | 0.00 | 57 | 1007.0 |
| 20260905080730 | 27 | 175 | 0.0 | 1.6 | 0.00 | 0.00 | 0.00 | 59 | 1007.1 |
| 20260905080230 | 27 | 126 | 3.2 | 4.8 | 0.00 | 0.00 | 0.00 | 61 | 1007.2 |
| 20260905075729 | 26 | 177 | 1.6 | 3.2 | 0.00 | 0.00 | 0.00 | 63 | 1007.2 |
| 20260905075229 | 26 | 175 | 3.2 | 3.2 | 0.00 | 0.00 | 0.00 | 64 | 1007.1 |
| 20260905074728 | 26 | 178 | 0.0 | 1.6 | 0.00 | 0.00 | 0.00 | 67 | 1006.8 |
| 20260905074224 | 26 | 190 | 0.0 | 0.0 | 0.00 | 0.00 | 0.00 | 68 | 1007.0 |
| 20260905073719 | 26 | 170 | 0.0 | 0.0 | 0.00 | 0.00 | 0.00 | 68 | 1006.8 |
| 20260905073215 | 25 | 198 | 1.6 | 3.2 | 0.00 | 0.00 | 0.00 | 68 | 1006.6 |
| 20260905072714 | 25 | 173 | 0.0 | 0.0 | 0.00 | 0.00 | 0.00 | 68 | 1006.7 |
| 20260905072209 | 25 | 188 | 3.2 | 3.2 | 0.00 | 0.00 | 0.00 | 68 | 1006.7 |
| 20260905071706 | 25 | 173 | 0.0 | 1.6 | 0.00 | 0.00 | 0.00 | 69 | 1006.5 |
| 20260905071202 | 25 | 167 | 0.0 | 0.0 | 0.00 | 0.00 | 0.00 | 69 | 1006.4 |
| 20260905070656 | 25 | 167 | 0.0 | 0.0 | 0.00 | 0.00 | 0.00 | 69 | 1006.8 |
| 20260905070152 | 25 | 148 | 1.6 | 3.2 | 0.00 | 0.00 | 0.00 | 68 | 1006.8 |
| 20260905065650 | 25 | 170 | 0.0 | 0.0 | 0.00 | 0.00 | 0.00 | 69 | 1006.6 |
| 20260905065145 | 25 | 181 | 0.0 | 0.0 | 0.00 | 0.00 | 0.00 | 69 | 1006.8 |
| 20260905064641 | 25 | 190 | 0.0 | 0.0 | 0.00 | 0.00 | 0.00 | 68 | 1006.8 |
| 20260905064136 | 25 | 166 | 1.6 | 1.6 | 0.00 | 0.00 | 0.00 | 66 | 1006.8 |
| 20260905063634 | 25 | 173 | 1.6 | 1.6 | 0.00 | 0.00 | 0.00 | 66 | 1006.8 |
| 20260905063131 | 24 | 160 | 0.0 | 0.0 | 0.00 | 0.00 | 0.00 | 68 | 1006.6 |
| 20260905062627 | 23 | 176 | 0.0 | 0.0 | 0.00 | 0.00 | 0.00 | 70 | 1006.6 |
| 20260905062126 | 23 | 152 | 1.6 | 1.6 | 0.00 | 0.00 | 0.00 | 73 | 1006.7 |
| 20260905061621 | 22 | 186 | 0.0 | 0.0 | 0.00 | 0.00 | 0.00 | 78 | 1006.6 |
| 20260905061120 | 22 | 185 | 0.0 | 0.0 | 0.00 | 0.00 | 0.00 | 81 | 1006.6 |
| 20260905060616 | 22 | 185 | 0.0 | 0.0 | 0.00 | 0.00 | 0.00 | 83 | 1006.6 |
| 20260905060112 | 22 | 213 | 0.0 | 1.6 | 0.00 | 0.00 | 0.00 | 83 | 1006.8 |
| 20260905055610 | 22 | 177 | 0.0 | 0.0 | 0.00 | 0.00 | 0.00 | 84 | 1006.8 |
| 20260905055106 | 22 | 192 | 0.0 | 0.0 | 0.00 | 0.00 | 0.00 | 84 | 1007.0 |
| 20260905054602 | 22 | 190 | 0.0 | 0.0 | 0.00 | 0.00 | 0.00 | 84 | 1006.8 |
| 20260905054057 | 22 | 182 | 0.0 | 0.0 | 0.00 | 0.00 | 0.00 | 84 | 1006.5 |
| 20260905053556 | 22 | 182 | 0.0 | 0.0 | 0.00 | 0.00 | 0.00 | 84 | 1006.5 |
| 20260905053052 | 22 | 183 | 0.0 | 0.0 | 0.00 | 0.00 | 0.00 | 84 | 1006.4 |
| 20260905052551 | 22 | 162 | 0.0 | 1.6 | 0.00 | 0.00 | 0.00 | 83 | 1006.6 |
| 20260905052046 | 22 | 153 | 0.0 | 0.0 | 0.00 | 0.00 | 0.00 | 84 | 1006.7 |
| 20260905051541 | 21 | 166 | 0.0 | 0.0 | 0.00 | 0.00 | 0.00 | 83 | 1006.3 |
| 20260905051038 | 21 | 175 | 0.0 | 0.0 | 0.00 | 0.00 | 0.00 | 82 | 1006.7 |
| 20260905050534 | 21 | 168 | 0.0 | 0.0 | 0.00 | 0.00 | 0.00 | 80 | 1006.6 |
| 20260905050031 | 21 | 185 | 0.0 | 0.0 | 0.00 | 0.00 | 0.00 | 80 | 1006.2 |
| 20260905045525 | 21 | 169 | 0.0 | 0.0 | 0.00 | 0.00 | 0.00 | 81 | 1006.2 |
| 20260905045020 | 21 | 169 | 0.0 | 0.0 | 0.00 | 0.00 | 0.00 | 83 | 1006.4 |
| 20260905044520 | 21 | 169 | 0.0 | 0.0 | 0.00 | 0.00 | 0.00 | 83 | 1006.2 |
| 20260905044015 | 21 | 169 | 0.0 | 0.0 | 0.00 | 0.00 | 0.00 | 83 | 1006.2 |
| 20260905043514 | 21 | 164 | 0.0 | 0.0 | 0.00 | 0.00 | 0.00 | 83 | 1006.3 |
| 20260905043009 | 21 | 162 | 0.0 | 0.0 | 0.00 | 0.00 | 0.00 | 82 | 1006.1 |
| 20260905042508 | 21 | 163 | 0.0 | 0.0 | 0.00 | 0.00 | 0.00 | 82 | 1006.3 |
| 20260905042004 | 22 | 161 | 0.0 | 0.0 | 0.00 | 0.00 | 0.00 | 82 | 1006.2 |
| 20260905041459 | 22 | 165 | 0.0 | 0.0 | 0.00 | 0.00 | 0.00 | 82 | 1006.1 |
| 20260905040954 | 22 | 141 | 1.6 | 1.6 | 0.00 | 0.00 | 0.00 | 82 | 1006.1 |
| 20260905040453 | 21 | 168 | 1.6 | 1.6 | 0.00 | 0.00 | 0.00 | 82 | 1006.1 |